Tracking 19903 objects as of 17-Oct-2019
HD Live streaming from Space Station
objects crossing your sky now

IRIDIUM 33 DEB

Track IRIDIUM 33 DEB now!
10-day predictions


NORAD ID: 34899
Int'l Code: 1997-051NB
Perigee: 620.4 km
Apogee: 662.7 km
Inclination: 86.4 °
Period: 97.4 minutes
Semi major axis: 7012 km
RCS: 0.0083 m2 (small)
Launch date: September 14, 1997
Source: United States (US)
Launch site: TYURATAM MISSILE AND SPACE COMPLEX (TTMTR)

Note: This is SATELLITE DEBRIS
aabbcc
Your satellite tracking list
Your tracking list is empty




NASA's NSSDC Master Catalog

Two Line Element Set (TLE):
1 34899U 97051NB  19289.42784921  .00004554  00000-0  61734-3 0  9993
2 34899  86.4043 258.1718 0030208  56.0861  69.1808 14.78392901555754
Source of the keplerian elements: AFSPC